EHI
2 1 1 2 2 1 0 0 0 0 0 0 0 0 0 0 0 1 2 2 2 1 1 0 0 0 2 3 4 3 2 3 3 3 3 3 3 3 2 1 1 1 0
2 1 1 1 1 1 0 0 0 0 0 0 0 0 0 0 0 0 1 2 2 2 1 1 1 1 3 4 4 3 3 3 3 4 4 4 3 3 2 1 1 1 1
1 1 1 1 1 2 1 2 2 1 0 0 0 0 0 0 0 0 0 1 2 2 2 2 2 4 5 5 4 4 4 4 5 6 5 4 3 2 1 0 1 1 1
1 1 2 2 2 3 2 4 4 2 1 0 0 0 0 1 0 0 0 0 0 1 2 3 4 5 6 6 5 5 5 5 6 7 6 4 3 1 0 0 1 2 2
3 3 3 1 2 3 4 5 5 3 1 0 0 0 0 0 0 0 0 0 0 1 2 2 3 4 6 7 7 5 5 6 7 7 7 6 4 2 1 0 1 2 3
5 6 4 2 3 5 6 6 4 2 1 0 0 0 0 0 0 0 0 0 0 0 1 1 2 3 5 8 8 7 6 6 6 6 7 7 6 4 3 1 1 3 3
5 6 6 6 6 7 7 6 3 1 0 0 0 0 0 0 0 0 0 0 0 0 1 2 3 3 3 6 8 9 8 7 7 7 6 5 5 5 5 4 3 4 4
6 7 9 9 8 8 8 7 5 2 1 0 0 0 1 1 1 0 1 2 1 1 2 3 4 4 4 4 7 9 8 8 8 8 6 6 6 5 5 5 6 5 5
7 8 11 11 9 9 9 9 8 6 4 2 2 2 2 2 1 1 2 3 3 2 3 3 4 5 5 5 6 7 7 6 7 8 8 9 8 5 4 5 6 7 6
7 8 10 11 10 9 9 9 8 8 7 5 5 5 5 3 3 3 3 3 3 3 3 3 4 5 6 7 7 7 6 5 5 7 10 11 10 8 6 6 7 7 7
6 7 8 9 10 9 8 8 8 8 9 8 6 6 6 6 5 4 4 4 3 3 3 3 3 3 4 6 8 8 6 4 4 6 7 9 11 10 10 8 7 7 7
6 6 7 8 8 8 8 9 9 10 11 10 8 7 7 6 6 5 6 6 4 3 3 4 4 2 2 4 7 8 6 4 3 3 4 6 8 10 10 9 7 5 5
7 7 7 7 7 7 8 9 10 12 12 11 9 8 7 7 7 7 7 6 4 2 4 6 5 3 2 4 6 6 5 3 1 1 1 3 5 6 6 7 6 4 4
7 7 7 7 7 7 9 11 12 13 13 12 10 9 8 7 7 8 7 4 2 2 4 6 7 5 4 4 5 5 5 4 2 1 0 1 1 2 2 4 5 4 3
8 8 9 9 8 8 9 12 13 13 14 13 12 11 10 8 8 8 7 4 3 3 4 6 8 8 6 5 4 5 6 5 3 2 1 0 0 0 0 1 2 3 2
12 12 12 12 10 9 9 10 11 12 13 13 12 11 10 9 9 8 8 7 7 7 6 6 8 8 6 5 5 6 7 7 5 3 1 1 0 0 0 0 1 1 1
19 18 15 13 11 10 9 8 8 9 10 10 10 10 10 10 10 10 10 11 11 11 9 7 7 7 8 8 8 7 7 7 5 4 3 2 1 1 0 0 0 0 0
20 19 15 12 11 10 9 9 8 8 7 7 8 9 10 10 11 11 12 12 13 13 12 9 7 8 10 12 12 9 7 6 6 4 3 3 2 1 0 0 0 0 0
12 13 12 10 10 10 9 9 9 8 8 7 8 10 11 11 10 11 12 11 12 13 13 10 8 9 10 13 14 12 10 8 6 3 2 3 3 2 1 0 0 0 0
6 7 8 8 8 7 8 8 8 7 7 8 9 10 11 10 10 10 10 11 12 14 14 11 8 7 9 11 14 14 12 11 7 3 3 4 4 3 2 1 0 0 0
6 6 6 7 5 4 4 5 6 5 6 6 8 10 10 9 9 8 7 8 9 12 14 12 9 7 8 10 11 11 11 9 6 4 5 6 7 6 5 3 1 0 0
9 7 6 5 3 1 1 2 3 4 4 5 7 8 8 8 7 5 4 3 4 6 10 11 10 9 9 10 9 8 8 7 5 5 5 6 7 8 7 6 3 1 0
11 10 7 5 3 1 0 1 1 3 4 6 7 7 7 7 8 8 6 4 3 3 5 8 9 8 9 10 9 8 7 6 4 4 3 3 4 5 7 6 3 1 0
12 12 11 9 6 3 0 0 1 3 6 7 7 7 7 8 9 11 11 9 6 4 3 4 5 6 6 7 7 7 6 4 3 2 2 1 1 2 3 4 2 0 0
11 12 13 13 11 7 3 1 2 6 8 9 9 8 8 8 8 9 9 8 6 4 2 1 1 2 2 2 3 3 3 2 1 1 1 0 0 0 1 2 1 0 0
9 11 13 14 13 11 6 2 3 7 10 10 10 9 8 7 5 4 5 5 4 3 1 0 0 0 0 0 0 1 1 1 0 0 0 0 0 0 0 1 0 0 0
Wind_Speed
2 2 2 1 1 1 2 2 1 1 1 2 2 2 1 1 1 1 3 6 6 5 5 5 6 6 7 8 8 8 8 8 8 7 8 8 8 9 9 9 9 9 9
2 2 1 1 1 1 1 0 1 1 2 1 1 2 2 2 2 2 2 5 8 6 6 5 5 6 7 8 8 8 8 8 8 8 8 8 9 9 9 9 9 9 9
2 2 1 1 1 1 1 1 1 1 2 2 2 2 2 2 2 2 2 1 4 8 7 6 5 5 6 7 8 8 8 8 8 8 9 9 9 9 10 10 9 10 10
1 1 1 1 1 0 1 1 1 1 1 1 1 1 2 2 3 3 2 2 1 2 6 7 5 5 5 6 7 8 8 8 9 9 9 9 10 10 10 10 10 10 10
1 1 1 1 1 0 0 1 1 1 1 1 2 2 2 2 2 2 2 2 2 2 2 6 7 6 6 7 7 7 7 8 8 9 9 10 10 10 10 10 10 10 10
1 0 1 1 1 0 0 1 0 1 1 2 3 1 2 2 2 2 3 2 2 2 2 2 4 6 8 7 7 8 8 8 8 8 8 9 9 9 9 10 11 11 11
1 1 0 1 1 0 1 1 1 2 1 1 3 2 2 3 2 2 2 2 1 2 2 3 3 2 4 8 8 7 7 8 8 8 8 8 9 9 10 10 10 11 12
1 1 1 1 0 1 1 1 2 2 1 1 3 3 2 3 3 2 2 2 2 2 2 3 2 3 3 3 4 7 6 7 8 8 8 7 8 8 10 11 11 10 11
1 1 1 1 1 2 1 2 2 2 2 1 2 3 3 1 1 2 1 1 2 2 2 2 3 3 3 2 3 5 5 5 6 7 7 7 7 8 9 11 11 11 11
1 1 1 1 2 2 1 3 1 2 2 2 1 2 3 3 3 1 1 1 1 2 1 1 1 2 2 3 2 2 4 4 5 6 7 7 7 8 9 10 11 11 11
1 1 1 1 2 2 2 3 2 3 2 3 2 2 2 2 4 3 2 1 1 1 1 2 2 1 1 2 2 2 3 4 4 4 4 5 6 6 8 9 10 10 10
1 1 1 2 2 2 2 2 3 3 2 3 3 3 3 3 3 3 3 3 2 1 1 1 2 1 1 2 1 3 2 3 3 3 4 4 4 5 6 7 8 9 10
1 1 1 2 2 2 2 2 2 3 3 3 4 3 3 3 3 3 4 3 3 2 1 1 1 1 2 1 0 3 3 3 3 2 3 3 3 4 4 5 6 8 8
1 0 1 2 2 2 2 2 3 3 2 3 4 3 3 3 3 3 4 4 4 3 2 1 1 1 1 1 1 2 2 3 3 2 2 3 3 3 3 4 5 6 6
1 1 2 1 2 2 2 3 2 2 3 3 3 3 4 3 3 3 4 5 5 4 3 2 2 1 2 1 1 2 2 3 3 2 2 2 3 3 3 3 4 5 5
1 1 2 2 2 2 2 3 2 2 3 3 3 3 4 3 3 3 4 4 4 5 4 2 2 1 2 2 1 2 2 3 3 3 3 3 3 4 4 4 4 4 5
2 2 2 2 2 2 2 2 3 2 3 3 3 3 3 4 4 3 3 4 4 4 4 3 2 1 2 3 2 3 3 3 2 4 3 3 3 3 3 4 4 4 4
3 3 3 3 3 2 2 2 3 2 3 3 3 3 4 3 4 4 3 4 4 3 5 4 3 2 3 3 3 4 3 2 2 4 4 3 2 3 4 4 4 4 4
3 3 3 3 3 2 3 2 3 3 3 4 4 4 4 4 4 4 5 4 4 3 4 4 4 2 2 2 2 3 2 2 3 4 6 5 4 3 3 4 4 4 5
3 3 3 3 2 3 2 2 3 3 4 4 4 4 4 4 4 5 4 4 4 4 4 4 4 3 2 1 2 2 2 2 3 2 1 3 5 5 3 2 3 3 4
3 3 3 3 3 3 2 2 3 3 3 3 4 4 3 3 4 4 5 4 4 4 4 4 3 2 2 1 2 2 2 2 2 2 2 2 2 2 3 4 3 2 3
3 3 3 3 3 2 2 2 4 3 3 4 4 4 4 3 2 3 4 5 5 5 5 4 3 3 3 3 2 3 2 2 2 1 3 2 1 1 1 1 3 2 2
4 4 4 4 4 2 0 1 3 5 4 4 4 4 4 2 3 4 3 4 4 5 5 6 5 4 3 2 3 4 3 3 3 2 3 3 2 2 1 2 5 4 3
4 4 4 4 4 2 1 2 3 5 4 4 4 5 5 4 3 4 4 4 4 3 4 4 3 3 3 2 3 4 3 3 3 2 2 3 2 2 1 1 5 4 4
4 4 4 4 4 2 2 2 3 4 3 4 4 3 4 4 2 3 4 4 3 3 1 0 1 1 1 1 2 2 2 3 2 2 1 3 2 2 2 2 4 6 5
4 4 3 4 4 3 2 2 3 4 3 3 3 3 1 2 2 2 3 3 3 3 2 1 0 1 2 2 3 3 3 3 2 2 1 3 2 2 3 2 2 3 4
Wind_Direction
116 107 100 101 102 109 136 138 131 144 184 204 211 189 182 179 180 185 147 168 192 208 219 218 217 215 215 209 209 210 212 215 215 215 217 217 217 212 210 211 209 208 209
98 101 114 104 89 92 75 125 145 178 199 192 207 186 201 196 176 211 197 175 188 200 212 218 219 222 221 213 211 212 217 219 219 218 219 220 218 214 214 214 211 209 207
110 131 113 113 82 90 131 179 175 196 200 186 191 199 202 208 202 213 225 218 187 188 192 198 208 216 214 210 211 214 217 221 224 222 218 220 220 218 218 218 215 213 211
142 161 122 114 111 153 174 176 214 222 206 222 195 226 218 202 210 221 218 216 232 195 178 180 194 205 212 217 218 219 221 224 226 224 220 221 221 220 220 219 219 217 214
141 177 128 88 182 161 269 270 91 279 252 263 236 210 228 217 213 213 216 226 205 220 198 168 185 203 214 221 223 223 225 227 228 226 226 224 221 221 219 217 218 217 214
140 214 150 143 226 188 207 23 343 296 287 281 283 260 232 217 218 215 229 218 201 209 207 196 192 192 202 214 223 228 228 226 228 228 227 224 221 220 219 216 217 220 219
161 226 254 144 237 245 279 250 266 231 242 273 273 249 213 206 207 210 228 244 207 212 214 214 225 210 191 200 214 225 232 228 226 228 228 229 228 224 220 217 218 222 222
230 200 200 248 225 230 238 259 264 287 283 261 288 287 241 187 185 196 212 219 246 229 219 210 201 211 241 207 175 207 225 231 227 229 231 229 231 229 224 223 222 223 224
214 262 237 279 287 269 265 261 249 250 274 274 285 295 301 317 312 166 192 213 229 238 240 228 220 214 229 233 204 188 213 231 227 230 233 230 230 226 225 223 222 223 224
220 228 238 243 266 279 283 264 245 266 266 277 256 273 301 324 295 267 190 174 215 231 246 261 246 224 233 233 207 188 195 222 227 231 234 229 227 221 223 222 222 223 223
215 237 236 241 238 255 274 287 294 276 267 277 282 273 268 256 257 274 279 267 231 226 238 264 277 261 246 241 230 156 172 209 224 229 231 230 228 225 222 220 221 221 219
198 199 229 251 252 263 263 263 267 249 271 289 290 283 271 274 273 269 268 260 258 247 233 264 274 258 250 252 225 94 155 202 219 228 232 237 236 228 224 220 219 217 218
214 187 263 263 272 262 263 267 255 274 259 260 268 274 275 277 278 273 269 269 266 257 239 232 264 272 258 249 131 119 166 180 198 216 226 227 233 231 226 221 218 215 216
261 184 241 254 271 277 271 262 257 255 263 265 270 273 268 271 274 269 270 273 269 258 245 259 278 267 272 258 63 213 174 164 186 211 221 224 225 224 217 210 211 213 213
226 207 237 250 268 267 273 270 271 274 278 269 266 252 258 266 266 272 270 267 271 271 262 239 245 232 256 257 187 241 232 144 175 197 208 212 214 217 211 206 210 209 211
241 233 242 255 263 259 258 263 258 268 272 275 280 287 281 277 276 267 267 272 271 272 275 282 275 292 300 285 227 259 239 160 167 185 200 211 213 212 210 208 209 207 208
218 226 239 252 259 265 263 263 271 266 274 287 286 277 276 288 288 279 270 269 265 262 263 272 282 291 279 277 277 266 247 236 182 163 175 197 209 214 214 213 212 209 206
226 223 233 241 250 259 258 257 272 285 281 287 289 289 286 278 276 278 278 272 271 263 258 263 270 270 259 260 260 259 255 251 237 152 168 179 201 213 218 218 215 215 208
233 233 230 240 257 268 265 263 274 281 280 287 289 288 291 292 286 289 283 281 276 263 261 258 259 257 259 262 256 254 256 256 251 171 173 183 190 205 217 222 219 215 207
226 235 239 244 253 262 268 274 271 273 281 289 293 292 291 290 287 287 280 278 279 274 260 259 260 251 246 248 257 254 256 252 262 245 214 188 175 188 194 202 214 210 203
227 227 240 242 252 252 267 292 281 285 289 283 283 288 292 303 320 303 300 297 283 274 269 263 263 270 275 271 272 268 266 265 245 261 255 224 185 194 186 186 183 199 202
231 232 238 245 253 272 47 353 302 289 282 281 286 285 274 259 275 266 286 299 297 284 284 278 267 270 272 275 287 276 278 273 261 256 271 256 237 232 215 169 118 137 178
229 234 240 244 250 259 126 275 288 282 278 279 281 283 285 295 276 283 261 243 251 260 271 277 282 284 279 277 272 264 265 276 283 286 272 263 250 241 224 110 125 149 165
234 236 241 244 252 248 169 246 281 266 273 273 273 272 277 286 298 302 289 285 286 283 267 254 274 289 307 305 269 261 256 250 238 231 256 260 253 254 250 146 146 162 172
235 241 242 241 244 240 171 214 267 263 261 270 273 273 278 281 350 326 288 286 287 276 225 261 297 312 350 313 290 273 262 258 254 227 235 264 267 269 249 223 164 171 181
233 240 239 240 245 249 167 178 252 263 267 272 265 261 272 308 38 331 289 283 284 298 311 321 292 214 225 213 222 261 275 272 269 263 235 265 259 264 256 227 203 189 194